Time,TemperatureF,DewpointF,PressureIn,WindDirection,WindDirectionDegrees,WindSpeedMPH,WindSpeedGustMPH,Humidity,HourlyPrecipIn,Conditions,Clouds,dailyrainin,SoftwareType,DateUTC
2013-06-02 00:01:00,74.7,73.8,30.00,NNW,343,0.0,5.0,97,0.01,,,0.00,meteohub,2013-06-02 04:01:00,
2013-06-02 00:06:00,74.7,73.8,30.00,North,5,3.0,5.0,97,0.01,,,0.00,meteohub,2013-06-02 04:06:00,
2013-06-02 00:11:00,74.7,73.4,30.01,NNE,17,0.0,5.0,96,0.00,,,0.00,meteohub,2013-06-02 04:11:00,
2013-06-02 00:16:00,74.7,73.8,30.00,NNE,15,0.0,3.0,97,0.00,,,0.00,meteohub,2013-06-02 04:16:00,
2013-06-02 00:21:00,74.8,73.9,30.00,NNE,15,0.0,3.0,97,0.00,,,0.00,meteohub,2013-06-02 04:21:00,
2013-06-02 00:26:00,74.8,73.9,30.00,NNE,15,0.0,2.0,97,0.00,,,0.00,meteohub,2013-06-02 04:26:00,
2013-06-02 00:31:00,74.8,73.9,30.00,NNE,22,0.0,2.0,97,0.00,,,0.00,meteohub,2013-06-02 04:31:00,
2013-06-02 00:36:00,74.8,73.9,30.01,East,84,1.0,2.0,97,0.00,,,0.00,meteohub,2013-06-02 04:36:00,
2013-06-02 00:41:00,74.8,73.9,30.00,East,92,0.0,2.0,97,0.00,,,0.00,meteohub,2013-06-02 04:41:00,
2013-06-02 00:46:00,74.8,73.9,30.00,East,82,0.0,2.0,97,0.00,,,0.00,meteohub,2013-06-02 04:46:00,
2013-06-02 00:51:00,74.8,73.9,30.00,East,86,1.0,5.0,97,0.00,,,0.00,meteohub,2013-06-02 04:51:00,
2013-06-02 00:56:00,74.8,73.9,30.00,ENE,61,1.0,5.0,97,0.00,,,0.00,meteohub,2013-06-02 04:56:00,
2013-06-02 01:01:00,74.7,73.8,30.00,East,95,0.0,5.0,97,0.00,,,0.00,meteohub,2013-06-02 05:01:00,
2013-06-02 01:06:00,74.7,73.8,30.01,East,95,1.0,5.0,97,0.00,,,0.00,meteohub,2013-06-02 05:06:00,
2013-06-02 01:11:00,74.7,73.8,30.00,East,96,0.0,5.0,97,0.00,,,0.00,meteohub,2013-06-02 05:11:00,
2013-06-02 01:16:00,74.7,73.8,30.00,East,94,0.0,2.0,97,0.00,,,0.00,meteohub,2013-06-02 05:16:00,
2013-06-02 01:21:00,74.5,73.6,30.00,East,88,0.0,2.0,97,0.00,,,0.00,meteohub,2013-06-02 05:21:00,
2013-06-02 01:26:00,74.5,73.6,30.00,ENE,64,0.0,2.0,97,0.00,,,0.00,meteohub,2013-06-02 05:26:00,
2013-06-02 01:31:00,74.3,73.4,30.00,ENE,63,0.0,2.0,97,0.00,,,0.00,meteohub,2013-06-02 05:31:00,
2013-06-02 01:36:00,74.3,73.4,30.00,ENE,63,0.0,2.0,97,0.00,,,0.00,meteohub,2013-06-02 05:36:00,
2013-06-02 01:41:00,74.5,73.6,30.00,ENE,75,0.0,2.0,97,0.00,,,0.00,meteohub,2013-06-02 05:41:00,
2013-06-02 01:46:00,74.5,73.6,30.00,East,96,0.0,2.0,97,0.00,,,0.00,meteohub,2013-06-02 05:46:00,
2013-06-02 01:51:00,74.5,73.6,29.99,East,96,0.0,2.0,97,0.00,,,0.00,meteohub,2013-06-02 05:51:00,
2013-06-02 01:56:00,74.5,73.6,29.99,East,96,0.0,2.0,97,0.00,,,0.00,meteohub,2013-06-02 05:56:00,
2013-06-02 02:01:00,74.5,73.6,29.99,East,96,0.0,1.0,97,0.00,,,0.00,meteohub,2013-06-02 06:01:00,
2013-06-02 02:06:00,74.5,73.6,29.99,East,96,0.0,1.0,97,0.00,,,0.00,meteohub,2013-06-02 06:06:00,
2013-06-02 02:11:00,74.3,73.4,29.99,East,96,0.0,1.0,97,0.00,,,0.00,meteohub,2013-06-02 06:11:00,
2013-06-02 02:16:00,74.3,73.4,29.99,NE,42,0.0,1.0,97,0.00,,,0.00,meteohub,2013-06-02 06:16:00,
2013-06-02 02:21:00,74.3,73.4,29.98,East,95,0.0,3.0,97,0.00,,,0.00,meteohub,2013-06-02 06:21:00,
2013-06-02 02:26:00,74.3,73.4,29.98,NE,50,1.0,3.0,97,0.00,,,0.00,meteohub,2013-06-02 06:26:00,
2013-06-02 02:31:00,74.1,73.2,29.98,NE,50,0.0,2.0,97,0.00,,,0.00,meteohub,2013-06-02 06:31:00,
2013-06-02 02:36:00,74.1,73.2,29.98,ESE,107,0.0,2.0,97,0.00,,,0.00,meteohub,2013-06-02 06:36:00,
2013-06-02 02:41:00,74.1,73.2,29.98,East,79,0.0,2.0,97,0.00,,,0.00,meteohub,2013-06-02 06:41:00,
2013-06-02 02:46:00,74.1,73.2,29.98,ENE,73,1.0,2.0,97,0.00,,,0.00,meteohub,2013-06-02 06:46:00,
2013-06-02 02:51:00,74.1,73.2,29.97,ENE,68,1.0,2.0,97,0.00,,,0.00,meteohub,2013-06-02 06:51:00,
2013-06-02 02:56:00,73.9,73.0,29.97,East,84,0.0,2.0,97,0.00,,,0.00,meteohub,2013-06-02 06:56:00,
2013-06-02 03:01:00,73.9,73.0,29.97,ENE,65,0.0,2.0,97,0.00,,,0.00,meteohub,2013-06-02 07:01:00,
2013-06-02 03:06:00,73.9,73.0,29.97,ENE,57,1.0,5.0,97,0.00,,,0.00,meteohub,2013-06-02 07:06:00,
2013-06-02 03:11:00,73.9,73.0,29.97,NE,51,0.0,5.0,97,0.00,,,0.00,meteohub,2013-06-02 07:11:00,
2013-06-02 03:16:00,73.9,73.0,29.97,ENE,78,1.0,5.0,97,0.00,,,0.00,meteohub,2013-06-02 07:16:00,
2013-06-02 03:21:00,73.9,73.0,29.96,NE,52,0.0,5.0,97,0.00,,,0.00,meteohub,2013-06-02 07:21:00,
2013-06-02 03:26:00,73.9,73.0,29.96,NE,55,1.0,5.0,97,0.00,,,0.00,meteohub,2013-06-02 07:26:00,
2013-06-02 03:31:00,73.9,73.0,29.96,NE,46,0.0,3.0,97,0.00,,,0.00,meteohub,2013-06-02 07:31:00,
2013-06-02 03:36:00,73.9,73.0,29.96,ENE,77,0.0,2.0,97,0.00,,,0.00,meteohub,2013-06-02 07:36:00,
2013-06-02 03:41:00,73.9,73.0,29.97,ENE,77,0.0,3.0,97,0.00,,,0.00,meteohub,2013-06-02 07:41:00,
2013-06-02 03:46:00,73.9,73.0,29.96,East,80,0.0,3.0,97,0.00,,,0.00,meteohub,2013-06-02 07:46:00,
2013-06-02 03:51:00,73.9,73.0,29.96,East,98,0.0,2.0,97,0.00,,,0.00,meteohub,2013-06-02 07:51:00,
2013-06-02 03:56:00,73.9,73.0,29.96,East,100,0.0,2.0,97,0.00,,,0.00,meteohub,2013-06-02 07:56:00,
2013-06-02 04:01:00,73.9,73.0,29.96,East,100,0.0,2.0,97,0.00,,,0.00,meteohub,2013-06-02 08:01:00,
2013-06-02 04:06:00,73.9,73.0,29.96,East,94,1.0,2.0,97,0.00,,,0.00,meteohub,2013-06-02 08:06:00,
2013-06-02 04:11:00,73.9,73.0,29.96,East,94,0.0,2.0,97,0.00,,,0.00,meteohub,2013-06-02 08:11:00,
2013-06-02 04:16:00,73.8,72.9,29.96,East,94,0.0,2.0,97,0.00,,,0.00,meteohub,2013-06-02 08:16:00,
2013-06-02 04:21:00,73.8,72.9,29.96,East,94,0.0,2.0,97,0.00,,,0.00,meteohub,2013-06-02 08:21:00,
2013-06-02 04:26:00,73.8,72.9,29.96,East,94,0.0,1.0,97,0.00,,,0.00,meteohub,2013-06-02 08:26:00,
2013-06-02 04:31:00,73.8,72.9,29.96,East,94,0.0,1.0,97,0.00,,,0.00,meteohub,2013-06-02 08:31:00,
2013-06-02 04:36:00,73.8,72.9,29.96,East,94,0.0,1.0,97,0.00,,,0.00,meteohub,2013-06-02 08:36:00,
2013-06-02 04:41:00,73.6,72.7,29.95,East,94,0.0,1.0,97,0.00,,,0.00,meteohub,2013-06-02 08:41:00,
2013-06-02 04:46:00,73.6,72.7,29.95,East,97,1.0,1.0,97,0.00,,,0.00,meteohub,2013-06-02 08:46:00,
2013-06-02 04:51:00,73.6,72.7,29.96,East,97,1.0,2.0,97,0.00,,,0.00,meteohub,2013-06-02 08:51:00,
2013-06-02 04:56:00,73.6,72.7,29.96,East,97,1.0,2.0,97,0.00,,,0.00,meteohub,2013-06-02 08:56:00,
2013-06-02 05:01:00,73.8,72.9,29.95,East,85,1.0,2.0,97,0.00,,,0.00,meteohub,2013-06-02 09:01:00,
2013-06-02 05:06:00,73.8,72.9,29.95,East,87,0.0,3.0,97,0.00,,,0.00,meteohub,2013-06-02 09:06:00,
2013-06-02 05:11:00,73.6,72.7,29.95,East,87,0.0,3.0,97,0.00,,,0.00,meteohub,2013-06-02 09:11:00,
2013-06-02 05:16:00,73.6,72.7,29.95,East,87,0.0,3.0,97,0.00,,,0.00,meteohub,2013-06-02 09:16:00,
2013-06-02 05:21:00,73.6,72.7,29.94,East,87,0.0,2.0,97,0.00,,,0.00,meteohub,2013-06-02 09:21:00,
2013-06-02 05:26:00,73.6,72.7,29.94,East,87,0.0,1.0,97,0.00,,,0.00,meteohub,2013-06-02 09:26:00,
2013-06-02 05:31:00,73.6,72.7,29.94,East,87,0.0,0.0,97,0.00,,,0.00,meteohub,2013-06-02 09:31:00,
2013-06-02 05:36:00,73.6,72.7,29.94,East,87,0.0,1.0,97,0.00,,,0.00,meteohub,2013-06-02 09:36:00,
2013-06-02 05:41:00,73.6,72.7,29.94,East,87,0.0,1.0,97,0.00,,,0.00,meteohub,2013-06-02 09:41:00,
2013-06-02 05:46:00,73.4,72.5,29.95,East,87,0.0,1.0,97,0.00,,,0.00,meteohub,2013-06-02 09:46:00,
2013-06-02 05:51:00,73.4,72.5,29.96,East,87,0.0,1.0,97,0.00,,,0.00,meteohub,2013-06-02 09:51:00,
2013-06-02 05:56:00,73.4,72.5,29.96,East,87,0.0,0.0,97,0.00,,,0.00,meteohub,2013-06-02 09:56:00,
2013-06-02 06:01:00,73.6,72.7,29.96,East,87,0.0,0.0,97,0.00,,,0.00,meteohub,2013-06-02 10:01:00,
2013-06-02 06:06:00,73.6,72.7,29.96,East,86,0.0,1.0,97,0.00,,,0.00,meteohub,2013-06-02 10:06:00,
2013-06-02 06:11:00,73.6,72.7,29.96,East,86,0.0,1.0,97,0.00,,,0.00,meteohub,2013-06-02 10:11:00,
2013-06-02 06:16:00,73.8,72.9,29.96,East,86,0.0,2.0,97,0.00,,,0.00,meteohub,2013-06-02 10:16:00,
2013-06-02 06:21:00,73.8,72.9,29.96,East,86,0.0,2.0,97,0.00,,,0.00,meteohub,2013-06-02 10:21:00,
2013-06-02 06:26:00,73.8,72.9,29.97,East,86,0.0,1.0,97,0.00,,,0.00,meteohub,2013-06-02 10:26:00,
2013-06-02 06:31:00,73.8,72.9,29.97,East,86,1.0,1.0,97,0.00,,,0.00,meteohub,2013-06-02 10:31:00,
2013-06-02 06:36:00,73.8,72.9,29.96,East,86,1.0,1.0,97,0.00,,,0.00,meteohub,2013-06-02 10:36:00,
2013-06-02 06:41:00,73.8,72.9,29.97,East,85,0.0,2.0,97,0.00,,,0.00,meteohub,2013-06-02 10:41:00,
2013-06-02 06:46:00,73.8,72.9,29.97,East,85,0.0,2.0,97,0.00,,,0.00,meteohub,2013-06-02 10:46:00,
2013-06-02 06:51:00,73.8,72.9,29.97,East,85,0.0,2.0,97,0.00,,,0.00,meteohub,2013-06-02 10:51:00,
2013-06-02 06:56:00,73.8,72.9,29.97,East,85,0.0,1.0,97,0.00,,,0.00,meteohub,2013-06-02 10:56:00,
2013-06-02 07:01:00,73.8,72.9,29.97,East,85,0.0,1.0,97,0.00,,,0.00,meteohub,2013-06-02 11:01:00,
2013-06-02 07:06:00,73.9,73.0,29.97,East,85,0.0,1.0,97,0.00,,,0.00,meteohub,2013-06-02 11:06:00,
2013-06-02 07:11:00,74.1,73.2,29.97,East,85,0.0,0.0,97,0.00,,,0.00,meteohub,2013-06-02 11:11:00,
2013-06-02 07:16:00,74.3,73.4,29.98,East,85,0.0,1.0,97,0.00,,,0.00,meteohub,2013-06-02 11:16:00,
2013-06-02 07:21:00,74.5,73.6,29.98,SE,132,2.0,2.0,97,0.00,,,0.00,meteohub,2013-06-02 11:21:00,
2013-06-02 07:26:00,74.7,73.8,29.98,East,82,1.0,3.0,97,0.00,,,0.00,meteohub,2013-06-02 11:26:00,
2013-06-02 07:31:00,74.7,73.8,29.98,ESE,109,0.0,3.0,97,0.00,,,0.00,meteohub,2013-06-02 11:31:00,
2013-06-02 07:36:00,74.7,73.8,29.98,ESE,110,2.0,3.0,97,0.00,,,0.00,meteohub,2013-06-02 11:36:00,
2013-06-02 07:41:00,74.8,73.9,29.98,ESE,109,1.0,3.0,97,0.00,,,0.00,meteohub,2013-06-02 11:41:00,
2013-06-02 07:46:00,74.8,73.9,29.98,ESE,110,2.0,3.0,97,0.00,,,0.00,meteohub,2013-06-02 11:46:00,
2013-06-02 07:51:00,75.0,74.1,29.99,ESE,105,1.0,4.0,97,0.00,,,0.00,meteohub,2013-06-02 11:51:00,
2013-06-02 07:56:00,75.0,74.1,29.99,East,101,1.0,4.0,97,0.00,,,0.00,meteohub,2013-06-02 11:56:00,
2013-06-02 08:01:00,75.4,74.5,29.99,ESE,108,1.0,6.0,97,0.00,,,0.00,meteohub,2013-06-02 12:01:00,
2013-06-02 08:06:00,75.6,74.7,29.99,ESE,110,1.0,6.0,97,0.00,,,0.00,meteohub,2013-06-02 12:06:00,
2013-06-02 08:11:00,75.7,74.8,29.99,ESE,115,2.0,4.0,97,0.00,,,0.00,meteohub,2013-06-02 12:11:00,
2013-06-02 08:16:00,75.7,74.8,29.99,ESE,105,0.0,4.0,97,0.00,,,0.00,meteohub,2013-06-02 12:16:00,
2013-06-02 08:21:00,75.9,75.0,29.99,SE,125,2.0,6.0,97,0.00,,,0.00,meteohub,2013-06-02 12:21:00,
2013-06-02 08:26:00,76.3,75.4,29.99,ESE,111,0.0,6.0,97,0.00,,,0.00,meteohub,2013-06-02 12:26:00,
2013-06-02 08:31:00,76.6,75.4,29.99,ESE,123,4.0,6.0,96,0.00,,,0.00,meteohub,2013-06-02 12:31:00,
2013-06-02 08:36:00,76.6,75.0,29.99,SE,134,0.0,6.0,95,0.00,,,0.00,meteohub,2013-06-02 12:36:00,
2013-06-02 08:41:00,77.2,75.6,29.99,SE,134,0.0,5.0,95,0.00,,,0.00,meteohub,2013-06-02 12:41:00,
2013-06-02 08:46:00,77.4,75.2,29.99,SE,134,0.0,5.0,93,0.00,,,0.00,meteohub,2013-06-02 12:46:00,
2013-06-02 08:51:00,78.1,75.9,29.99,SE,134,0.0,5.0,93,0.00,,,0.00,meteohub,2013-06-02 12:51:00,
2013-06-02 08:56:00,78.8,75.9,29.99,SSE,158,2.0,2.0,91,0.00,,,0.00,meteohub,2013-06-02 12:56:00,
2013-06-02 09:01:00,79.2,75.0,29.99,SSE,156,0.0,2.0,87,0.00,,,0.00,meteohub,2013-06-02 13:01:00,
2013-06-02 09:06:00,79.9,75.4,29.99,ESE,119,1.0,2.0,86,0.00,,,0.00,meteohub,2013-06-02 13:06:00,
2013-06-02 09:11:00,80.6,75.4,29.99,ESE,123,4.0,4.0,84,0.00,,,0.00,meteohub,2013-06-02 13:11:00,
2013-06-02 09:16:00,81.1,75.2,29.99,SE,131,0.0,6.0,82,0.00,,,0.00,meteohub,2013-06-02 13:16:00,
2013-06-02 09:21:00,81.7,75.6,30.00,SE,126,2.0,6.0,82,0.00,,,0.00,meteohub,2013-06-02 13:21:00,
2013-06-02 09:26:00,82.0,75.2,29.99,ESE,109,1.0,6.0,80,0.00,,,0.00,meteohub,2013-06-02 13:26:00,
2013-06-02 09:31:00,82.6,75.7,29.99,ESE,112,1.0,5.0,80,0.00,,,0.00,meteohub,2013-06-02 13:31:00,
2013-06-02 09:36:00,83.3,76.1,29.99,SSE,155,0.0,5.0,79,0.00,,,0.00,meteohub,2013-06-02 13:36:00,
2013-06-02 09:41:00,83.8,76.3,29.99,East,94,6.0,6.0,78,0.00,,,0.00,meteohub,2013-06-02 13:41:00,
2013-06-02 09:46:00,84.4,76.5,29.99,East,99,2.0,6.0,77,0.00,,,0.00,meteohub,2013-06-02 13:46:00,
2013-06-02 09:51:00,84.6,76.5,29.99,SSE,154,1.0,6.0,77,0.00,,,0.00,meteohub,2013-06-02 13:51:00,
2013-06-02 09:56:00,84.4,76.5,29.99,ESE,111,1.0,6.0,77,0.00,,,0.00,meteohub,2013-06-02 13:56:00,
2013-06-02 10:01:00,83.8,75.4,30.00,SSE,155,0.0,3.0,76,0.00,,,0.00,meteohub,2013-06-02 14:01:00,
2013-06-02 10:06:00,84.0,75.6,29.99,SE,125,2.0,5.0,76,0.00,,,0.00,meteohub,2013-06-02 14:06:00,
2013-06-02 10:11:00,84.7,75.9,29.99,ESE,102,1.0,7.0,75,0.00,,,0.00,meteohub,2013-06-02 14:11:00,
2013-06-02 10:16:00,85.1,75.9,29.99,SE,125,5.0,7.0,74,0.00,,,0.00,meteohub,2013-06-02 14:16:00,
2013-06-02 10:21:00,84.7,75.6,29.99,ESE,103,2.0,8.0,74,0.00,,,0.00,meteohub,2013-06-02 14:21:00,
2013-06-02 10:26:00,84.9,75.2,29.99,SE,127,3.0,8.0,73,0.00,,,0.00,meteohub,2013-06-02 14:26:00,
2013-06-02 10:31:00,85.6,75.6,29.99,East,96,2.0,8.0,72,0.00,,,0.00,meteohub,2013-06-02 14:31:00,
2013-06-02 10:36:00,86.7,75.7,29.99,ESE,122,1.0,8.0,70,0.00,,,0.00,meteohub,2013-06-02 14:36:00,
2013-06-02 10:41:00,87.1,75.7,29.99,ESE,105,2.0,8.0,69,0.00,,,0.00,meteohub,2013-06-02 14:41:00,
2013-06-02 10:46:00,87.1,75.2,29.99,SE,140,1.0,5.0,68,0.00,,,0.00,meteohub,2013-06-02 14:46:00,
2013-06-02 10:51:00,86.7,76.1,29.99,ENE,78,1.0,6.0,71,0.00,,,0.00,meteohub,2013-06-02 14:51:00,
2013-06-02 10:56:00,87.1,76.1,29.99,ESE,104,1.0,6.0,70,0.00,,,0.00,meteohub,2013-06-02 14:56:00,
2013-06-02 11:01:00,86.9,75.9,29.99,SE,134,0.0,6.0,70,0.00,,,0.00,meteohub,2013-06-02 15:01:00,
2013-06-02 11:06:00,86.5,75.6,29.99,South,175,1.0,4.0,70,0.00,,,0.00,meteohub,2013-06-02 15:06:00,
2013-06-02 11:11:00,86.4,75.9,29.99,East,80,0.0,3.0,71,0.00,,,0.00,meteohub,2013-06-02 15:11:00,
2013-06-02 11:16:00,86.4,75.9,29.99,East,94,1.0,5.0,71,0.00,,,0.00,meteohub,2013-06-02 15:16:00,
2013-06-02 11:21:00,86.7,74.8,29.98,ESE,109,2.0,5.0,68,0.00,,,0.00,meteohub,2013-06-02 15:21:00,
2013-06-02 11:26:00,87.6,76.1,29.98,SE,124,0.0,6.0,69,0.00,,,0.00,meteohub,2013-06-02 15:26:00,
2013-06-02 11:31:00,88.3,75.9,29.98,SSE,163,2.0,6.0,67,0.00,,,0.00,meteohub,2013-06-02 15:31:00,
2013-06-02 11:36:00,88.0,75.2,29.98,SSE,155,0.0,6.0,66,0.00,,,0.00,meteohub,2013-06-02 15:36:00,
2013-06-02 11:41:00,88.0,76.1,29.98,East,88,0.0,5.0,68,0.00,,,0.00,meteohub,2013-06-02 15:41:00,
2013-06-02 11:46:00,87.4,74.7,29.98,SW,221,2.0,5.0,66,0.00,,,0.00,meteohub,2013-06-02 15:46:00,
2013-06-02 11:51:00,86.4,74.5,29.98,SW,229,1.0,5.0,68,0.00,,,0.00,meteohub,2013-06-02 15:51:00,
2013-06-02 11:56:00,85.8,74.8,29.98,SSW,211,2.0,4.0,70,0.00,,,0.00,meteohub,2013-06-02 15:56:00,
2013-06-02 12:01:00,85.5,75.7,29.98,WNW,294,0.0,3.0,73,0.00,,,0.00,meteohub,2013-06-02 16:01:00,
2013-06-02 12:06:00,85.5,75.4,29.98,NW,306,0.0,3.0,72,0.00,,,0.00,meteohub,2013-06-02 16:06:00,
2013-06-02 12:11:00,85.5,75.4,29.98,SSW,206,3.0,3.0,72,0.00,,,0.00,meteohub,2013-06-02 16:11:00,
2013-06-02 12:16:00,84.9,74.8,29.98,SSW,200,0.0,3.0,72,0.00,,,0.00,meteohub,2013-06-02 16:16:00,
2013-06-02 12:21:00,84.0,74.5,29.98,SSW,207,4.0,4.0,73,0.00,,,0.00,meteohub,2013-06-02 16:21:00,
2013-06-02 12:26:00,83.5,74.7,29.98,SW,215,2.0,5.0,75,0.00,,,0.00,meteohub,2013-06-02 16:26:00,
2013-06-02 12:31:00,83.1,74.3,29.98,SSW,201,2.0,7.0,75,0.00,,,0.00,meteohub,2013-06-02 16:31:00,
2013-06-02 12:36:00,82.8,74.5,29.98,SSW,205,5.0,7.0,76,0.00,,,0.00,meteohub,2013-06-02 16:36:00,
2013-06-02 12:41:00,82.2,74.3,29.98,South,190,3.0,7.0,77,0.00,,,0.00,meteohub,2013-06-02 16:41:00,
2013-06-02 12:46:00,82.0,74.5,29.98,WSW,245,2.0,7.0,78,0.00,,,0.00,meteohub,2013-06-02 16:46:00,
2013-06-02 12:51:00,81.9,75.0,29.98,WSW,239,0.0,7.0,80,0.00,,,0.00,meteohub,2013-06-02 16:51:00,
2013-06-02 12:56:00,81.9,75.4,29.98,SSW,193,1.0,7.0,81,0.00,,,0.00,meteohub,2013-06-02 16:56:00,
2013-06-02 13:01:00,82.0,75.2,29.97,South,187,2.0,7.0,80,0.00,,,0.00,meteohub,2013-06-02 17:01:00,
2013-06-02 13:06:00,82.2,74.7,29.97,SE,136,3.0,7.0,78,0.00,,,0.00,meteohub,2013-06-02 17:06:00,
2013-06-02 13:11:00,82.9,75.0,29.97,South,189,5.0,7.0,77,0.00,,,0.00,meteohub,2013-06-02 17:11:00,
2013-06-02 13:16:00,82.9,74.7,29.97,SW,219,2.0,7.0,76,0.00,,,0.00,meteohub,2013-06-02 17:16:00,
2013-06-02 13:21:00,83.5,74.7,29.97,SW,220,1.0,7.0,75,0.00,,,0.00,meteohub,2013-06-02 17:21:00,
2013-06-02 13:26:00,84.6,75.7,29.97,SW,231,1.0,7.0,75,0.00,,,0.00,meteohub,2013-06-02 17:26:00,
2013-06-02 13:31:00,84.9,74.5,29.97,WNW,290,1.0,7.0,71,0.00,,,0.00,meteohub,2013-06-02 17:31:00,
2013-06-02 13:36:00,85.6,74.7,29.97,SSW,204,7.0,7.0,70,0.00,,,0.00,meteohub,2013-06-02 17:36:00,
2013-06-02 13:41:00,85.8,75.7,29.97,SE,141,0.0,7.0,72,0.00,,,0.00,meteohub,2013-06-02 17:41:00,
2013-06-02 13:46:00,85.5,75.4,29.97,SW,229,4.0,9.0,72,0.00,,,0.00,meteohub,2013-06-02 17:46:00,
2013-06-02 13:51:00,84.7,75.6,29.97,SSW,192,5.0,9.0,74,0.00,,,0.00,meteohub,2013-06-02 17:51:00,
2013-06-02 13:56:00,84.2,75.7,29.97,WNW,291,2.0,9.0,76,0.00,,,0.00,meteohub,2013-06-02 17:56:00,
2013-06-02 14:01:00,84.4,75.6,29.96,West,264,2.0,8.0,75,0.00,,,0.00,meteohub,2013-06-02 18:01:00,
2013-06-02 14:06:00,84.4,75.6,29.96,SW,220,5.0,7.0,75,0.00,,,0.00,meteohub,2013-06-02 18:06:00,
2013-06-02 14:11:00,84.7,75.6,29.96,South,189,2.0,7.0,74,0.00,,,0.00,meteohub,2013-06-02 18:11:00,
2013-06-02 14:16:00,85.5,75.7,29.96,SW,223,0.0,7.0,73,0.00,,,0.00,meteohub,2013-06-02 18:16:00,
2013-06-02 14:21:00,85.5,75.0,29.96,SW,227,3.0,7.0,71,0.00,,,0.00,meteohub,2013-06-02 18:21:00,
2013-06-02 14:26:00,85.1,75.0,29.96,South,185,5.0,8.0,72,0.00,,,0.00,meteohub,2013-06-02 18:26:00,
2013-06-02 14:31:00,85.6,75.6,29.96,WSW,252,2.0,8.0,72,0.00,,,0.00,meteohub,2013-06-02 18:31:00,
2013-06-02 14:36:00,86.2,75.2,29.96,SW,221,3.0,7.0,70,0.00,,,0.00,meteohub,2013-06-02 18:36:00,
2013-06-02 14:41:00,86.4,75.0,29.96,SSW,193,3.0,8.0,69,0.00,,,0.00,meteohub,2013-06-02 18:41:00,
2013-06-02 14:46:00,87.1,76.1,29.96,WSW,254,3.0,8.0,70,0.00,,,0.00,meteohub,2013-06-02 18:46:00,
2013-06-02 14:51:00,86.4,75.4,29.96,South,178,0.0,8.0,70,0.00,,,0.00,meteohub,2013-06-02 18:51:00,
2013-06-02 14:56:00,86.5,75.2,29.96,South,191,3.0,8.0,69,0.00,,,0.00,meteohub,2013-06-02 18:56:00,
2013-06-02 15:01:00,87.1,75.7,29.96,SSW,201,3.0,9.0,69,0.00,,,0.00,meteohub,2013-06-02 19:01:00,
2013-06-02 15:06:00,86.4,75.4,29.96,SSW,209,2.0,9.0,70,0.00,,,0.00,meteohub,2013-06-02 19:06:00,
2013-06-02 15:11:00,86.2,75.7,29.96,SW,223,4.0,9.0,71,0.00,,,0.00,meteohub,2013-06-02 19:11:00,
2013-06-02 15:16:00,86.2,75.7,29.95,SSW,209,5.0,9.0,71,0.00,,,0.00,meteohub,2013-06-02 19:16:00,
2013-06-02 15:21:00,85.8,75.7,29.95,South,178,4.0,9.0,72,0.00,,,0.00,meteohub,2013-06-02 19:21:00,
2013-06-02 15:26:00,85.6,75.6,29.95,South,178,4.0,12.0,72,0.00,,,0.00,meteohub,2013-06-02 19:26:00,
2013-06-02 15:31:00,85.8,75.4,29.95,SSE,152,5.0,12.0,71,0.00,,,0.00,meteohub,2013-06-02 19:31:00,
2013-06-02 15:36:00,85.6,75.6,29.95,SSW,211,4.0,12.0,72,0.00,,,0.00,meteohub,2013-06-02 19:36:00,
2013-06-02 15:41:00,85.8,75.7,29.95,SSW,211,5.0,9.0,72,0.00,,,0.00,meteohub,2013-06-02 19:41:00,
2013-06-02 15:46:00,86.4,75.9,29.95,WSW,251,6.0,9.0,71,0.00,,,0.00,meteohub,2013-06-02 19:46:00,
2013-06-02 15:51:00,86.5,76.5,29.95,SSW,193,5.0,9.0,72,0.00,,,0.00,meteohub,2013-06-02 19:51:00,
2013-06-02 15:56:00,87.1,76.5,29.95,SW,215,6.0,8.0,71,0.00,,,0.00,meteohub,2013-06-02 19:56:00,
2013-06-02 16:01:00,87.4,75.9,29.96,SSW,210,6.0,8.0,69,0.00,,,0.00,meteohub,2013-06-02 20:01:00,
2013-06-02 16:06:00,86.7,75.7,29.95,SW,227,7.0,9.0,70,0.00,,,0.00,meteohub,2013-06-02 20:06:00,
2013-06-02 16:11:00,86.9,76.8,29.95,WSW,240,0.0,9.0,72,0.00,,,0.00,meteohub,2013-06-02 20:11:00,
2013-06-02 16:16:00,87.3,75.9,29.94,SSE,153,5.0,9.0,69,0.00,,,0.00,meteohub,2013-06-02 20:16:00,
2013-06-02 16:21:00,86.5,75.9,29.94,SSW,207,7.0,9.0,71,0.00,,,0.00,meteohub,2013-06-02 20:21:00,
2013-06-02 16:26:00,86.4,76.3,29.94,SW,222,5.0,10.0,72,0.00,,,0.00,meteohub,2013-06-02 20:26:00,
2013-06-02 16:31:00,86.5,76.5,29.94,SSW,197,3.0,10.0,72,0.00,,,0.00,meteohub,2013-06-02 20:31:00,
2013-06-02 16:36:00,86.7,76.1,29.94,SSW,212,5.0,9.0,71,0.00,,,0.00,meteohub,2013-06-02 20:36:00,
2013-06-02 16:41:00,86.4,76.6,29.94,SSW,211,7.0,10.0,73,0.00,,,0.00,meteohub,2013-06-02 20:41:00,
2013-06-02 16:46:00,85.6,76.5,29.94,SSW,205,5.0,10.0,74,0.00,,,0.00,meteohub,2013-06-02 20:46:00,
2013-06-02 16:51:00,85.6,76.5,29.93,SSE,149,6.0,10.0,74,0.00,,,0.00,meteohub,2013-06-02 20:51:00,
2013-06-02 16:56:00,85.8,76.6,29.93,SSE,153,3.0,9.0,74,0.00,,,0.00,meteohub,2013-06-02 20:56:00,
2013-06-02 17:01:00,85.8,76.6,29.93,SW,223,6.0,9.0,74,0.00,,,0.00,meteohub,2013-06-02 21:01:00,
2013-06-02 17:06:00,85.5,75.7,29.93,SSW,207,5.0,9.0,73,0.00,,,0.00,meteohub,2013-06-02 21:06:00,
2013-06-02 17:11:00,84.9,76.1,29.93,SW,221,4.0,9.0,75,0.00,,,0.00,meteohub,2013-06-02 21:11:00,
2013-06-02 17:16:00,84.9,76.1,29.93,ESE,105,3.0,9.0,75,0.00,,,0.00,meteohub,2013-06-02 21:16:00,
2013-06-02 17:21:00,85.3,76.1,29.92,ESE,119,2.0,9.0,74,0.00,,,0.00,meteohub,2013-06-02 21:21:00,
2013-06-02 17:26:00,85.8,76.6,29.92,SW,227,2.0,8.0,74,0.00,,,0.00,meteohub,2013-06-02 21:26:00,
2013-06-02 17:31:00,86.0,76.8,29.92,SW,216,4.0,8.0,74,0.00,,,0.00,meteohub,2013-06-02 21:31:00,
2013-06-02 17:36:00,86.2,77.0,29.92,SSW,213,2.0,8.0,74,0.00,,,0.00,meteohub,2013-06-02 21:36:00,
2013-06-02 17:41:00,85.5,76.3,29.92,SE,146,7.0,8.0,74,0.00,,,0.00,meteohub,2013-06-02 21:41:00,
2013-06-02 17:46:00,84.9,76.5,29.92,SSE,163,1.0,9.0,76,0.00,,,0.00,meteohub,2013-06-02 21:46:00,
2013-06-02 17:51:00,84.7,76.3,29.92,NW,324,1.0,9.0,76,0.00,,,0.00,meteohub,2013-06-02 21:51:00,
2013-06-02 17:56:00,84.6,76.5,29.92,SSW,198,3.0,13.0,77,0.00,,,0.00,meteohub,2013-06-02 21:56:00,
2013-06-02 18:01:00,84.6,76.5,29.92,SW,218,2.0,13.0,77,0.00,,,0.00,meteohub,2013-06-02 22:01:00,
2013-06-02 18:06:00,84.6,77.0,29.92,SSW,204,7.0,13.0,78,0.00,,,0.00,meteohub,2013-06-02 22:06:00,
2013-06-02 18:11:00,84.6,76.5,29.92,ESE,115,0.0,10.0,77,0.00,,,0.00,meteohub,2013-06-02 22:11:00,
2013-06-02 18:16:00,84.9,75.7,29.92,SE,140,0.0,10.0,74,0.00,,,0.00,meteohub,2013-06-02 22:16:00,
2013-06-02 18:21:00,84.9,76.1,29.91,SSW,213,3.0,9.0,75,0.00,,,0.00,meteohub,2013-06-02 22:21:00,
2013-06-02 18:26:00,84.9,75.2,29.91,WSW,247,6.0,9.0,73,0.00,,,0.00,meteohub,2013-06-02 22:26:00,
2013-06-02 18:31:00,84.6,75.4,29.91,SSW,200,3.0,10.0,74,0.00,,,0.00,meteohub,2013-06-02 22:31:00,
2013-06-02 18:36:00,84.4,75.6,29.91,SW,230,7.0,10.0,75,0.00,,,0.00,meteohub,2013-06-02 22:36:00,
2013-06-02 18:41:00,84.0,75.6,29.91,SSW,202,3.0,10.0,76,0.00,,,0.00,meteohub,2013-06-02 22:41:00,
2013-06-02 18:46:00,84.0,75.6,29.91,South,186,4.0,10.0,76,0.00,,,0.00,meteohub,2013-06-02 22:46:00,
2013-06-02 18:51:00,83.8,75.0,29.91,ENE,71,2.0,12.0,75,0.00,,,0.00,meteohub,2013-06-02 22:51:00,
2013-06-02 18:56:00,84.0,75.2,29.91,South,178,2.0,12.0,75,0.00,,,0.00,meteohub,2013-06-02 22:56:00,
2013-06-02 19:01:00,83.8,75.4,29.92,South,177,3.0,12.0,76,0.00,,,0.00,meteohub,2013-06-02 23:01:00,
2013-06-02 19:06:00,83.7,75.7,29.92,SW,217,3.0,9.0,77,0.00,,,0.00,meteohub,2013-06-02 23:06:00,
2013-06-02 19:11:00,83.7,75.7,29.92,SSW,203,2.0,9.0,77,0.00,,,0.00,meteohub,2013-06-02 23:11:00,
2013-06-02 19:16:00,83.7,75.7,29.92,SSW,211,3.0,8.0,77,0.00,,,0.00,meteohub,2013-06-02 23:16:00,
2013-06-02 19:21:00,83.5,75.6,29.92,SSW,197,1.0,8.0,77,0.00,,,0.00,meteohub,2013-06-02 23:21:00,
2013-06-02 19:26:00,83.3,75.4,29.93,SSE,162,3.0,7.0,77,0.00,,,0.00,meteohub,2013-06-02 23:26:00,
2013-06-02 19:31:00,83.1,75.6,29.93,WSW,250,2.0,7.0,78,0.00,,,0.00,meteohub,2013-06-02 23:31:00,
2013-06-02 19:36:00,82.9,75.0,29.93,SW,221,3.0,7.0,77,0.00,,,0.00,meteohub,2013-06-02 23:36:00,
2013-06-02 19:41:00,82.8,75.2,29.93,South,187,1.0,7.0,78,0.00,,,0.00,meteohub,2013-06-02 23:41:00,
2013-06-02 19:46:00,82.6,75.0,29.93,South,186,0.0,7.0,78,0.00,,,0.00,meteohub,2013-06-02 23:46:00,
2013-06-02 19:51:00,82.2,75.0,29.93,ESE,123,7.0,7.0,79,0.00,,,0.00,meteohub,2013-06-02 23:51:00,
2013-06-02 19:56:00,82.0,74.8,29.93,SE,139,1.0,10.0,79,0.00,,,0.00,meteohub,2013-06-02 23:56:00,
2013-06-02 20:01:00,81.9,74.7,29.93,ESE,120,1.0,10.0,79,0.00,,,0.00,meteohub,2013-06-03 00:01:00,
2013-06-02 20:06:00,81.9,74.7,29.93,SW,226,1.0,10.0,79,0.00,,,0.00,meteohub,2013-06-03 00:06:00,
2013-06-02 20:11:00,81.7,74.5,29.93,SSE,150,1.0,7.0,79,0.00,,,0.00,meteohub,2013-06-03 00:11:00,
2013-06-02 20:16:00,81.5,74.7,29.93,SW,236,3.0,4.0,80,0.00,,,0.00,meteohub,2013-06-03 00:16:00,
2013-06-02 20:21:00,81.3,74.5,29.93,SSE,151,4.0,4.0,80,0.00,,,0.00,meteohub,2013-06-03 00:21:00,
2013-06-02 20:26:00,81.1,74.3,29.93,SE,126,1.0,6.0,80,0.00,,,0.00,meteohub,2013-06-03 00:26:00,
2013-06-02 20:31:00,81.0,74.7,29.93,ESE,110,2.0,6.0,81,0.00,,,0.00,meteohub,2013-06-03 00:31:00,
2013-06-02 20:36:00,80.8,74.5,29.93,South,169,3.0,6.0,81,0.00,,,0.00,meteohub,2013-06-03 00:36:00,
2013-06-02 20:41:00,80.8,74.8,29.93,ESE,121,0.0,6.0,82,0.00,,,0.00,meteohub,2013-06-03 00:41:00,
2013-06-02 20:46:00,80.4,74.5,29.94,ESE,108,2.0,6.0,82,0.00,,,0.00,meteohub,2013-06-03 00:46:00,
2013-06-02 20:51:00,80.4,74.5,29.94,SSW,192,2.0,6.0,82,0.00,,,0.00,meteohub,2013-06-03 00:51:00,
2013-06-02 20:56:00,80.4,74.5,29.94,South,172,0.0,5.0,82,0.00,,,0.00,meteohub,2013-06-03 00:56:00,
2013-06-02 21:01:00,80.2,74.7,29.95,SE,142,0.0,5.0,83,0.00,,,0.00,meteohub,2013-06-03 01:01:00,
2013-06-02 21:06:00,80.2,74.7,29.95,SE,138,4.0,5.0,83,0.00,,,0.00,meteohub,2013-06-03 01:06:00,
2013-06-02 21:11:00,80.2,74.7,29.95,SE,136,0.0,5.0,83,0.00,,,0.00,meteohub,2013-06-03 01:11:00,
2013-06-02 21:16:00,80.2,74.7,29.95,SE,136,0.0,5.0,83,0.00,,,0.00,meteohub,2013-06-03 01:16:00,
2013-06-02 21:21:00,80.1,74.8,29.96,SSE,157,0.0,4.0,84,0.00,,,0.00,meteohub,2013-06-03 01:21:00,
2013-06-02 21:26:00,80.1,74.8,29.96,SSE,157,0.0,4.0,84,0.00,,,0.00,meteohub,2013-06-03 01:26:00,
2013-06-02 21:31:00,79.9,74.7,29.96,SE,146,0.0,4.0,84,0.00,,,0.00,meteohub,2013-06-03 01:31:00,
2013-06-02 21:36:00,79.9,75.0,29.96,SE,128,2.0,4.0,85,0.00,,,0.00,meteohub,2013-06-03 01:36:00,
2013-06-02 21:41:00,79.9,75.0,29.96,SE,130,0.0,4.0,85,0.00,,,0.00,meteohub,2013-06-03 01:41:00,
2013-06-02 21:51:00,79.7,75.2,29.96,SW,230,2.0,4.0,86,0.00,,,0.00,meteohub,2013-06-03 01:51:00,
2013-06-02 21:56:00,79.5,75.0,29.96,South,172,0.0,2.0,86,0.00,,,0.00,meteohub,2013-06-03 01:56:00,
2013-06-02 22:06:00,79.5,75.0,29.97,SSE,156,3.0,3.0,86,0.00,,,0.00,meteohub,2013-06-03 02:06:00,
2013-06-02 22:16:00,79.5,75.4,29.97,SE,132,2.0,3.0,87,0.00,,,0.00,meteohub,2013-06-03 02:16:00,
2013-06-02 22:21:00,79.3,75.2,29.98,SE,133,0.0,3.0,87,0.00,,,0.00,meteohub,2013-06-03 02:21:00,
2013-06-02 22:26:00,79.3,75.2,29.98,SE,134,0.0,3.0,87,0.00,,,0.00,meteohub,2013-06-03 02:26:00,
2013-06-02 22:36:00,79.2,75.0,29.98,SE,137,1.0,4.0,87,0.00,,,0.00,meteohub,2013-06-03 02:36:00,
2013-06-02 22:41:00,79.2,75.0,29.98,SE,143,1.0,4.0,87,0.00,,,0.00,meteohub,2013-06-03 02:41:00,
2013-06-02 22:46:00,79.2,74.7,29.98,SE,137,2.0,5.0,86,0.00,,,0.00,meteohub,2013-06-03 02:46:00,
2013-06-02 22:56:00,79.2,74.7,29.98,SE,129,0.0,5.0,86,0.00,,,0.00,meteohub,2013-06-03 02:56:00,
2013-06-02 23:06:00,79.0,74.5,29.98,SE,135,0.0,3.0,86,0.00,,,0.00,meteohub,2013-06-03 03:06:00,
2013-06-02 23:16:00,78.8,74.7,29.97,SSE,150,0.0,2.0,87,0.00,,,0.00,meteohub,2013-06-03 03:16:00,
2013-06-02 23:21:00,78.8,74.7,29.97,SE,134,0.0,3.0,87,0.00,,,0.00,meteohub,2013-06-03 03:21:00,
2013-06-02 23:26:00,78.8,74.7,29.97,SE,134,1.0,3.0,87,0.00,,,0.00,meteohub,2013-06-03 03:26:00,
2013-06-02 23:31:00,78.8,74.7,29.97,SE,136,3.0,4.0,87,0.00,,,0.00,meteohub,2013-06-03 03:31:00,
2013-06-02 23:36:00,78.8,74.7,29.96,SSE,151,1.0,4.0,87,0.00,,,0.00,meteohub,2013-06-03 03:36:00,
2013-06-02 23:46:00,78.8,74.7,29.96,SSE,156,0.0,3.0,87,0.00,,,0.00,meteohub,2013-06-03 03:46:00,
2013-06-02 23:51:00,78.6,74.5,29.96,SSE,148,1.0,3.0,87,0.00,,,0.00,meteohub,2013-06-03 03:51:00,
2013-06-02 23:56:00,78.6,74.5,29.96,SSE,153,1.0,4.0,87,0.00,,,0.00,meteohub,2013-06-03 03:56:00,